Location: Clarion
(42.7316°N, 93.7330°W)
Time: 09:28:45
(UTC+00:00)

Meteor 2-16 Rocket - Pass Details

Date: 22 April 2026
Orbit: 941 x 956 km, 82.6° (Epoch: 17 May)

Event Time Altitude Azimuth Distance (km) Brightness Sun altitude
Rises 02:30:07 0° 353° (N) 3,637 8.1 -15.1°
Reaches altitude 10° 02:32:39 10° 356° (N) 2,686 7.3 -15.5°
Maximum altitude 02:38:47 72° 81° (E) 998 4.4 -16.4°
Enters shadow 02:43:20 19° 163° (SSE) 2,098 5.8 -17.1°
